Flag for Canada Weather past 2 weeks in Guelph, Ontario, Canada

Now
61 °F

Light rain. More clouds than sun.


Feels Like: 61 °F
Forecast: 53 / 63 °F
Wind: 2 mph from North

Location: Waterloo Well

Current Time: Sep 30, 2014 at 2:27:46 PM

Latest Report: Sep 30, 2014 at 1:00 PM


Visibility: 9 mi

Pressure: 29.92 "Hg

Humidity: 88%

Dew point: 57 °F

Location of GuelphLocation

Historic Weather in Guelph — Graph

°F

Guelph temperature yesterday

Maximum temperature yesterday: 75 °F (at 3:00 PM)
Minimum temperature yesterday: 48 °F (at 6:00 AM)
Average temperature yesterday: 60 °F

Past Weeks' High & Low Weather Summary

 TemperatureHumidityPressure
High77 °F (Sep 27, 4:00 PM)100% (Sep 16, 3:00 AM)30.50 "Hg (Sep 16, 3:00 AM)
Low36 °F (Sep 19, 2:00 AM)42% (Sep 27, 5:00 PM)29.55 "Hg (Sep 21, 9:00 AM)
Average55 °F82%30.13 "Hg
* Reported Sep 15 11:00 AM — Sep 30 11:00 AM, Guelph, Weather by CustomWeather, © 2014

Note: Actual official high and low records may vary slightly from our data, if they occured in-between our weather recording intervals... More about our weather records

Advertising

Guelph weather history for previous 24 hours

 ConditionsComfort  
Time TempWeatherWind HumidityBarometerVisibility
11:00 AM
Sep 30
61 °FBroken clouds.5 mph94%29.90 "Hg7 mi
10:47 AM61 °FFog.6 mph94%29.89 "Hg6 mi
10:02 AM59 °FFog.No wind94%29.89 "Hg2 mi
10:00 AM59 °FFog.No wind100%29.89 "Hg2 mi
9:59 AM59 °FFog.No wind100%29.89 "Hg1 mi
9:00 AM59 °FFog.2 mph94%29.88 "Hg1 mi
8:00 AM57 °FFog.3 mph100%29.88 "Hg1 mi
7:54 AM59 °FFog.5 mph94%29.87 "Hg2 mi
7:00 AM57 °FRain. Fog.12 mph100%29.86 "Hg1 mi
6:00 AM57 °FLight rain. Fog.5 mph94%29.87 "Hg1 mi
5:00 AM55 °FRain. Fog.8 mph100%29.85 "Hg1 mi
4:00 AM55 °FFog.3 mph94%29.86 "Hg3 mi
3:00 AM55 °FFog.2 mph94%29.86 "Hg3 mi
2:58 AM55 °FFog.5 mph94%29.86 "Hg3 mi
2:02 AM52 °FFog.No wind94%29.86 "Hg2 mi
1:00 AM55 °FPassing clouds.3 mph94%29.86 "Hg7 mi
12:00 AM52 °FPassing clouds.3 mph94%29.88 "Hg9 mi
11:00 PM
Sep 29
55 °FClear.2 mph88%29.89 "Hg9 mi
10:00 PM55 °FClear.No wind88%29.90 "Hg9 mi
9:00 PM57 °FClear.3 mph88%29.90 "Hg9 mi
8:00 PM59 °FSunny.3 mph82%29.91 "Hg9 mi
7:00 PM64 °FSunny.6 mph68%29.90 "Hg9 mi
6:00 PM72 °FSunny.5 mph57%29.90 "Hg9 mi
5:00 PM73 °FSunny.8 mph50%29.90 "Hg9 mi
4:00 PM75 °FScattered clouds.8 mph50%29.91 "Hg9 mi
3:00 PM75 °FPartly sunny.7 mph50%29.93 "Hg9 mi
2:00 PM73 °FPartly sunny.7 mph57%29.94 "Hg9 mi
Weather by CustomWeather, © 2014

See weather overviewHow to use our weather pages